[[{"header":{"parameterUnit":"m.s-1","parameterCategory":1,"la1":30.2991,"la2":30.254,"lo1":-89.0895,"lo2":-89.0444,"dy":0.0017,"dx":0.0017,"nx":28,"ny":28,"refTime":"2024-06-15T03:00:00:Z","depth":0,"parameterNumber":2,"parameterNumberName":"U-component_of_WINDS"},"data":[0,0,0,0,0,0,0,0,0,0,0,0,0,0,0,0,0,0,0,0,0,0,0,0,0,0,0,0,0,0,0,0,0,0,0,0,0,0,0,0,0,0,0,0,0,0,0,0,0,0,0,0,0,0,0,0,0,0,-1.3729,-1.3729,0,-1.3778,-1.3778,-1.3779,-1.3827,-1.3827,-1.3828,-1.3829,-1.3878,-1.3879,-1.3879,0,0,0,0,0,0,0,0,0,0,0,0,0,-1.3675,-1.3676,-1.3729,-1.3729,-1.373,-1.3778,-1.3778,-1.3779,-1.3827,-1.3827,-1.3828,-1.3829,-1.3878,-1.3878,-1.3879,0,0,0,0,0,0,0,0,0,0,0,0,0,-1.3709,-1.3676,-1.3729,-1.3759,-1.3763,-1.3778,-1.3778,-1.3779,-1.3826,-1.3827,-1.3828,-1.3829,-1.3877,-1.3878,-1.3879,-1.3868,0,0,-1.3883,-1.3883,0,0,0,0,0,0,0,0,-1.3707,-1.3711,-1.3754,-1.3757,-1.3761,-1.3797,-1.3778,-1.3809,-1.3826,-1.3802,-1.3829,-1.383,-1.385,-1.3854,-1.3861,-1.387,-1.3872,-1.3883,-1.3884,-1.3884,-1.3884,0,0,0,0,0,0,0,-1.3705,-1.3709,-1.3748,-1.3755,-1.3759,-1.3771,-1.3776,-1.3784,-1.382,-1.3804,-1.3808,-1.3813,-1.3852,-1.386,-1.3862,-1.3873,-1.3883,-1.3884,-1.3885,-1.3885,-1.3876,-1.3875,0,0,0,0,0,0,-1.3698,-1.3707,-1.3747,-1.375,-1.3736,-1.3771,-1.3777,-1.3785,-1.382,-1.3827,-1.3812,-1.3815,-1.3857,-1.3861,-1.3864,-1.3854,-1.3884,-1.3885,-1.3886,-1.3877,-1.3875,-1.3875,0,0,0,0,0,0,-1.3696,-1.3701,-1.3745,-1.3729,-1.3736,-1.3771,-1.3779,-1.3785,-1.3793,-1.3826,-1.3833,-1.3813,-1.3858,-1.3863,-1.3867,-1.3856,-1.3886,-1.3887,-1.3878,-1.3876,-1.3875,-1.3831,0,0,0,0,0,0,-1.3695,-1.37,-1.3696,-1.3729,-1.3736,-1.3746,-1.3778,-1.3785,-1.3794,-1.3799,-1.3829,-1.3835,-1.3859,-1.3865,-1.3868,-1.3858,-1.3887,-1.3879,-1.3877,-1.3875,-1.3834,-1.3829,-1.3824,0,0,0,0,0,-1.3693,-1.3681,-1.3696,-1.37,-1.3732,-1.3746,-1.375,-1.3778,-1.3793,-1.379,-1.3811,-1.3834,-1.3856,-1.3865,-1.3869,-1.3859,-1.388,-1.3878,-1.3876,-1.3836,-1.383,-1.3824,0,0,0,0,0,0,-1.3646,-1.3686,-1.3702,-1.3702,-1.372,-1.3754,-1.375,-1.3771,-1.3785,-1.3788,-1.3822,-1.3829,-1.3829,-1.3844,-1.3853,-1.385,-1.3871,-1.387,-1.384,-1.3834,-1.3829,-1.3826,-1.3888,0,0,0,0,0,-1.3636,-1.3644,-1.3678,-1.3674,-1.3683,-1.3715,-1.3722,-1.3742,-1.3762,-1.377,-1.3792,-1.3811,-1.3822,-1.3829,-1.3841,-1.3836,-1.3844,-1.3831,-1.3826,-1.3822,-1.3821,-1.382,-1.3815,-1.3868,-1.3868,-1.3868,0,0,-1.3615,-1.3638,-1.3641,-1.3666,-1.3682,-1.369,-1.3721,-1.3727,-1.3733,-1.3771,-1.3777,-1.3793,-1.3816,-1.3816,-1.3817,-1.3829,-1.3808,-1.382,-1.3816,-1.3817,-1.3818,-1.3813,-1.3808,-1.3866,-1.3867,-1.3867,0,0,-1.358,-1.3598,-1.3597,-1.3613,-1.3638,-1.3659,-1.3659,-1.369,-1.3702,-1.3709,-1.3737,-1.3744,-1.3763,-1.3779,-1.3789,-1.376,-1.3782,-1.3763,-1.3738,-1.3737,-1.3733,-1.3729,-1.372,-1.3716,-1.3761,-1.3761,-1.3761,0,-1.3551,-1.3563,-1.3594,-1.3599,-1.3609,-1.3644,-1.3643,-1.3657,-1.3684,-1.3691,-1.3703,-1.3728,-1.3746,-1.375,-1.3743,-1.375,-1.3751,-1.376,-1.3731,-1.3728,-1.3725,-1.3716,-1.3713,-1.3759,-1.3759,-1.3759,-1.376,0,-1.3526,-1.3535,-1.3531,-1.3557,-1.3567,-1.3569,-1.3599,-1.3605,-1.3625,-1.3644,-1.3651,-1.3673,-1.3691,-1.3693,-1.3712,-1.37,-1.3707,-1.3724,-1.3747,-1.3717,-1.371,-1.3707,-1.3756,-1.3756,-1.3757,-1.3758,0,0,-1.3465,-1.3508,-1.3506,-1.3518,-1.3548,-1.3555,-1.3558,-1.3576,-1.3581,-1.3599,-1.3603,-1.3618,-1.3635,-1.3646,-1.3667,-1.3666,-1.3643,-1.3684,-1.3685,-1.3676,-1.3632,-1.362,-1.3615,-1.3657,-1.3656,-1.3656,-1.3631,0,-1.3436,-1.3445,-1.3472,-1.3473,-1.3481,-1.3514,-1.3517,-1.3536,-1.3555,-1.3564,-1.3585,-1.3595,-1.3616,-1.3623,-1.3624,-1.3645,-1.3635,-1.3647,-1.3662,-1.3662,-1.3656,-1.3611,-1.3598,-1.3573,-1.3628,-1.3628,-1.3627,0,-1.3404,-1.342,-1.3421,-1.3451,-1.3456,-1.3458,-1.3477,-1.3486,-1.3507,-1.3521,-1.3534,-1.3557,-1.3563,-1.3583,-1.3591,-1.36,-1.3607,-1.3618,-1.3618,-1.3621,-1.3643,-1.3614,-1.3566,-1.3562,-1.3623,-1.3623,-1.3623,0,-1.336,-1.3381,-1.3386,-1.3395,-1.343,-1.3431,-1.3445,-1.3468,-1.3477,-1.3493,-1.35,-1.3516,-1.3525,-1.3537,-1.3564,-1.3576,-1.357,-1.3592,-1.3582,-1.3581,-1.358,-1.358,-1.3533,-1.3583,-1.3583,-1.3583,-1.3583,0,-1.3326,-1.3325,-1.3366,-1.3369,-1.337,-1.3401,-1.3401,-1.3419,-1.3438,-1.3445,-1.3474,-1.3479,-1.3514,-1.3524,-1.3545,-1.3549,-1.3553,-1.3564,-1.357,-1.3562,-1.3561,-1.3568,-1.3571,-1.3582,-1.3582,-1.3582,-1.3582,0,-1.3277,-1.3304,-1.3311,-1.3343,-1.3352,-1.3351,-1.3379,-1.3383,-1.3403,-1.3411,-1.3414,-1.3446,-1.3459,-1.3487,-1.3507,-1.3521,-1.352,-1.353,-1.3513,-1.3517,-1.3506,-1.3507,-1.3463,-1.3459,-1.351,-1.3509,-1.3509,0,-1.3254,-1.3255,-1.3287,-1.3294,-1.3307,-1.3318,-1.3327,-1.3358,-1.3366,-1.3391,-1.3392,-1.3407,-1.3421,-1.344,-1.3465,-1.348,-1.3491,-1.3475,-1.3494,-1.3487,-1.3493,-1.3493,-1.3493,-1.3471,-1.347,-1.347,-1.3469,0,-1.321,-1.3224,-1.3236,-1.3254,-1.3265,-1.328,-1.3296,-1.33,-1.3335,-1.3343,-1.3357,-1.3367,-1.3388,-1.3403,-1.3422,-1.3437,-1.3459,-1.3463,-1.3462,-1.3454,-1.3445,-1.3451,-1.3503,-1.3464,-1.3464,-1.3465,-1.3465,-1.3465,-1.3174,-1.3177,-1.3201,-1.3214,-1.323,-1.3245,-1.325,-1.3271,-1.3283,-1.3303,-1.332,-1.3332,-1.3354,-1.3382,-1.3396,-1.3406,-1.3417,-1.3415,-1.3414,-1.3414,-1.3411,-1.3442,-1.341,-1.341,-1.341,-1.341,-1.341,0,-1.3133,-1.315,-1.3162,-1.3185,-1.3195,-1.3215,-1.3234,-1.3242,-1.3252,-1.3271,-1.3284,-1.33,-1.3314,-1.334,-1.3357,-1.336,-1.3371,-1.3364,-1.3365,-1.3368,-1.34,-1.34,-1.3355,-1.3355,-1.3355,-1.3355,-1.3355,-1.3355,-1.3113,-1.3119,-1.3135,-1.3149,-1.3166,-1.3178,-1.3188,-1.3202,-1.3217,-1.3234,-1.3246,-1.3263,-1.3285,-1.3303,-1.3318,-1.3325,-1.333,-1.332,-1.3331,-1.336,-1.3365,-1.337,-1.3371,-1.3321,-1.3321,-1.3299,-1.3298,-1.3298]},{"header":{"parameterUnit":"m.s-1","parameterCategory":1,"la1":30.2991,"la2":30.254,"lo1":-89.0895,"lo2":-89.0444,"dy":0.0017,"dx":0.0017,"nx":28,"ny":28,"refTime":"2024-06-15T03:00:00:Z","depth":0,"parameterNumber":3,"parameterNumberName":"V-component_of_WINDS"},"data":[0,0,0,0,0,0,0,0,0,0,0,0,0,0,0,0,0,0,0,0,0,0,0,0,0,0,0,0,0,0,0,0,0,0,0,0,0,0,0,0,0,0,0,0,0,0,0,0,0,0,0,0,0,0,0,0,0,0,-1.3256,-1.3255,0,-1.3151,-1.315,-1.3149,-1.3089,-1.3089,-1.3089,-1.3089,-1.2979,-1.2977,-1.2974,0,0,0,0,0,0,0,0,0,0,0,0,0,-1.3403,-1.3401,-1.3256,-1.3254,-1.3253,-1.3151,-1.315,-1.3149,-1.3089,-1.3089,-1.3089,-1.3089,-1.298,-1.2977,-1.2974,0,0,0,0,0,0,0,0,0,0,0,0,0,-1.3323,-1.34,-1.3256,-1.3211,-1.3206,-1.3152,-1.315,-1.3148,-1.309,-1.3089,-1.3089,-1.3089,-1.2981,-1.2977,-1.2973,-1.2954,0,0,-1.2961,-1.2959,0,0,0,0,0,0,0,0,-1.3328,-1.3318,-1.3219,-1.3214,-1.3209,-1.3133,-1.3162,-1.3083,-1.309,-1.3134,-1.3089,-1.3089,-1.303,-1.3022,-1.3003,-1.2949,-1.2944,-1.296,-1.2958,-1.2956,-1.2955,0,0,0,0,0,0,0,-1.3333,-1.3322,-1.3214,-1.3218,-1.3211,-1.3196,-1.3185,-1.3146,-1.3085,-1.313,-1.3125,-1.3114,-1.3027,-1.3007,-1.3,-1.2942,-1.296,-1.2957,-1.2954,-1.2953,-1.2869,-1.2869,0,0,0,0,0,0,-1.3346,-1.3327,-1.3218,-1.3211,-1.3269,-1.3194,-1.3181,-1.3158,-1.3085,-1.3074,-1.3114,-1.3112,-1.3015,-1.3005,-1.2996,-1.297,-1.2956,-1.2952,-1.295,-1.2868,-1.2869,-1.2869,0,0,0,0,0,0,-1.3349,-1.3337,-1.3222,-1.3268,-1.3252,-1.3192,-1.3166,-1.3156,-1.3136,-1.3074,-1.3062,-1.3105,-1.3014,-1.3002,-1.2965,-1.2965,-1.295,-1.2947,-1.2868,-1.2869,-1.2869,-1.2917,0,0,0,0,0,0,-1.3354,-1.3338,-1.3331,-1.3268,-1.325,-1.3193,-1.3166,-1.3154,-1.3129,-1.3124,-1.3062,-1.3051,-1.3013,-1.2972,-1.2961,-1.296,-1.2943,-1.2868,-1.2868,-1.2869,-1.2915,-1.2919,-1.2923,0,0,0,0,0,-1.3359,-1.3347,-1.333,-1.3318,-1.3239,-1.3193,-1.3183,-1.314,-1.3129,-1.3121,-1.3081,-1.3053,-1.2967,-1.2969,-1.2956,-1.2953,-1.2868,-1.2868,-1.2869,-1.2914,-1.2918,-1.2922,0,0,0,0,0,0,-1.3409,-1.3338,-1.3319,-1.3286,-1.3247,-1.3183,-1.3171,-1.3146,-1.3107,-1.3104,-1.3052,-1.3038,-1.3007,-1.2976,-1.2979,-1.2932,-1.2914,-1.2913,-1.2953,-1.2957,-1.296,-1.2969,-1.294,0,0,0,0,0,-1.3417,-1.3387,-1.3326,-1.3303,-1.3284,-1.3232,-1.321,-1.3181,-1.3137,-1.312,-1.3077,-1.3036,-1.2999,-1.2976,-1.2939,-1.2911,-1.2897,-1.2903,-1.2906,-1.291,-1.2909,-1.2893,-1.2895,-1.2871,-1.2871,-1.2871,0,0,-1.3432,-1.3389,-1.3373,-1.3312,-1.3278,-1.3248,-1.3218,-1.3186,-1.3164,-1.3114,-1.3078,-1.3046,-1.2996,-1.2964,-1.2948,-1.2937,-1.2913,-1.291,-1.2913,-1.291,-1.2894,-1.2896,-1.2898,-1.2871,-1.2871,-1.2871,0,0,-1.3443,-1.3408,-1.3386,-1.3353,-1.3302,-1.3268,-1.3263,-1.3204,-1.3181,-1.3144,-1.3107,-1.3079,-1.3017,-1.2984,-1.2959,-1.2961,-1.2934,-1.2951,-1.2969,-1.2955,-1.2957,-1.2958,-1.296,-1.2961,-1.295,-1.295,-1.295,0,-1.3467,-1.3421,-1.3377,-1.3349,-1.3324,-1.328,-1.3258,-1.3227,-1.3167,-1.3151,-1.314,-1.3064,-1.3026,-1.2987,-1.2988,-1.2969,-1.2962,-1.2957,-1.296,-1.2961,-1.2962,-1.2963,-1.2964,-1.2952,-1.2952,-1.2952,-1.2951,0,-1.3454,-1.3423,-1.3411,-1.3356,-1.333,-1.3304,-1.3257,-1.3235,-1.3209,-1.3175,-1.3139,-1.3094,-1.3048,-1.3036,-1.3009,-1.2994,-1.2989,-1.297,-1.2952,-1.2967,-1.2968,-1.2968,-1.2956,-1.2955,-1.2954,-1.2953,0,0,-1.3492,-1.3416,-1.3412,-1.3388,-1.333,-1.3305,-1.3278,-1.3235,-1.3218,-1.3178,-1.3155,-1.3105,-1.3088,-1.306,-1.3029,-1.3016,-1.3023,-1.2999,-1.2997,-1.3006,-1.3005,-1.302,-1.3021,-1.3005,-1.3005,-1.3005,-1.3009,0,-1.3496,-1.3447,-1.3408,-1.3374,-1.3345,-1.3305,-1.3282,-1.3244,-1.3213,-1.3184,-1.3149,-1.3115,-1.3094,-1.3077,-1.3063,-1.3025,-1.3022,-1.3024,-1.2983,-1.2982,-1.2998,-1.3021,-1.3036,-1.3043,-1.3009,-1.3009,-1.3009,0,-1.3493,-1.3458,-1.3421,-1.3369,-1.3356,-1.3336,-1.3294,-1.3267,-1.3224,-1.3202,-1.3172,-1.3141,-1.3111,-1.3097,-1.3056,-1.3058,-1.3039,-1.3018,-1.3018,-1.3012,-1.2997,-1.3017,-1.3043,-1.3045,-1.3008,-1.3008,-1.3008,0,-1.3526,-1.3469,-1.344,-1.342,-1.3358,-1.3346,-1.3319,-1.3276,-1.3253,-1.3217,-1.3202,-1.3162,-1.314,-1.311,-1.3069,-1.3062,-1.3033,-1.3014,-1.3015,-1.3016,-1.301,-1.3011,-1.3035,-1.2997,-1.2997,-1.2997,-1.2997,0,-1.3535,-1.3514,-1.3455,-1.3437,-1.3414,-1.3369,-1.3347,-1.3317,-1.3279,-1.3255,-1.3217,-1.3195,-1.3142,-1.3114,-1.3082,-1.3054,-1.3044,-1.3026,-1.3017,-1.3029,-1.3032,-1.3016,-1.3015,-1.2997,-1.2997,-1.2997,-1.2997,0,-1.3567,-1.3526,-1.3493,-1.3438,-1.3424,-1.3409,-1.3362,-1.3344,-1.3312,-1.3282,-1.3272,-1.3221,-1.3187,-1.3143,-1.3093,-1.3072,-1.3048,-1.3035,-1.3063,-1.3058,-1.3062,-1.3062,-1.3076,-1.3077,-1.3039,-1.3039,-1.304,0,-1.3575,-1.3559,-1.3503,-1.3485,-1.3461,-1.3432,-1.3409,-1.3365,-1.3343,-1.3295,-1.3283,-1.3246,-1.3214,-1.316,-1.3118,-1.3081,-1.3067,-1.3075,-1.3061,-1.3075,-1.3069,-1.3071,-1.3069,-1.3078,-1.3079,-1.3079,-1.308,0,-1.3594,-1.3576,-1.3545,-1.3509,-1.3483,-1.3452,-1.3419,-1.3406,-1.3355,-1.3333,-1.3298,-1.3273,-1.3225,-1.3189,-1.3147,-1.3119,-1.3091,-1.3085,-1.3083,-1.3095,-1.3113,-1.3105,-1.3073,-1.3084,-1.3084,-1.3084,-1.3083,-1.3083,-1.3615,-1.3599,-1.3559,-1.3527,-1.3498,-1.3469,-1.345,-1.3417,-1.3387,-1.3345,-1.3321,-1.3287,-1.3247,-1.3188,-1.3161,-1.3134,-1.3124,-1.3121,-1.312,-1.3121,-1.3125,-1.3118,-1.3126,-1.3126,-1.3126,-1.3126,-1.3126,0,-1.3633,-1.3605,-1.3577,-1.3533,-1.3508,-1.3487,-1.3449,-1.343,-1.3401,-1.3366,-1.3337,-1.3298,-1.3263,-1.322,-1.3183,-1.317,-1.3157,-1.3162,-1.3162,-1.3157,-1.3136,-1.3142,-1.3173,-1.3173,-1.3173,-1.3173,-1.3173,-1.3173,-1.3639,-1.3613,-1.359,-1.355,-1.3522,-1.349,-1.3471,-1.3444,-1.3417,-1.3375,-1.3347,-1.332,-1.3282,-1.3243,-1.321,-1.3199,-1.3187,-1.3196,-1.3181,-1.3162,-1.3158,-1.3154,-1.3159,-1.3194,-1.3194,-1.3204,-1.3204,-1.3204]}]]